TimePST,TemperatureF,Dew PointF,Humidity,Sea Level PressureIn,VisibilityMPH,Wind Direction,Wind SpeedMPH,Gust SpeedMPH,PrecipitationIn,Events,Conditions,WindDirDegrees,DateUTC
12:05 AM,37.4,35.6,93,30.17,10.0,Calm,Calm,-,0.00,Rain,Light Rain,0,2013-01-30 08:05:00
12:56 AM,37.0,35.1,93,30.18,10.0,ENE,6.9,-,0.01,Rain,Light Rain,70,2013-01-30 08:56:00
1:12 AM,37.4,35.6,93,30.16,10.0,ENE,5.8,-,0.00,Rain,Light Rain,70,2013-01-30 09:12:00
1:56 AM,37.0,35.1,93,30.20,10.0,Calm,Calm,-,0.00,Rain,Light Rain,0,2013-01-30 09:56:00
2:38 AM,35.6,35.6,100,30.17,0.8,North,3.5,-,0.00,,Overcast,360,2013-01-30 10:38:00
2:49 AM,35.6,35.6,100,30.16,0.2,Calm,Calm,-,0.00,Fog,Fog,0,2013-01-30 10:49:00
2:56 AM,36.0,35.1,97,30.19,0.2,Calm,Calm,-,0.00,Fog,Fog,0,2013-01-30 10:56:00
3:04 AM,35.6,35.6,100,30.17,0.5,NNW,3.5,-,N/A,Fog,Fog,330,2013-01-30 11:04:00
3:30 AM,35.6,35.6,100,30.17,1.5,Calm,Calm,-,N/A,,Overcast,0,2013-01-30 11:30:00
3:33 AM,35.6,35.6,100,30.16,3.0,Calm,Calm,-,N/A,,Overcast,0,2013-01-30 11:33:00
3:56 AM,36.0,35.1,97,30.19,10.0,Calm,Calm,-,N/A,,Overcast,0,2013-01-30 11:56:00
4:21 AM,35.6,33.8,93,30.15,1.5,NNW,3.5,-,N/A,,Overcast,330,2013-01-30 12:21:00
4:23 AM,35.6,33.8,93,30.15,0.8,NW,4.6,-,N/A,,Overcast,310,2013-01-30 12:23:00
4:33 AM,35.6,35.6,100,30.14,0.2,Calm,Calm,-,N/A,Fog,Fog,0,2013-01-30 12:33:00
4:39 AM,35.6,35.6,100,30.14,0.5,North,3.5,-,N/A,Fog,Fog,10,2013-01-30 12:39:00
4:46 AM,35.6,35.6,100,30.14,1.5,Calm,Calm,-,N/A,,Overcast,0,2013-01-30 12:46:00
4:56 AM,35.1,34.0,96,30.18,1.8,NNE,3.5,-,N/A,,Overcast,20,2013-01-30 12:56:00
5:02 AM,35.6,33.8,93,30.14,3.0,Calm,Calm,-,N/A,,Mostly Cloudy,0,2013-01-30 13:02:00
5:56 AM,36.0,35.1,97,30.18,10.0,East,4.6,-,N/A,,Overcast,100,2013-01-30 13:56:00
6:40 AM,35.6,33.8,93,30.15,2.0,NNW,5.8,-,N/A,,Scattered Clouds,340,2013-01-30 14:40:00
6:44 AM,33.8,33.8,100,30.16,1.2,West,6.9,-,N/A,,Scattered Clouds,280,2013-01-30 14:44:00
6:51 AM,33.8,33.8,100,30.15,0.2,Calm,Calm,-,N/A,Fog,Fog,0,2013-01-30 14:51:00
6:52 AM,34.0,34.0,100,30.19,0.2,Calm,Calm,-,N/A,Fog,Fog,0,2013-01-30 14:52:00
7:04 AM,33.8,33.8,100,30.15,1.2,Calm,Calm,-,N/A,,Scattered Clouds,0,2013-01-30 15:04:00
7:06 AM,33.8,33.8,100,30.15,2.0,Calm,Calm,-,N/A,,Scattered Clouds,0,2013-01-30 15:06:00
7:18 AM,33.8,33.8,100,30.16,7.0,Calm,Calm,-,N/A,,Partly Cloudy,0,2013-01-30 15:18:00
7:56 AM,36.0,34.0,93,30.19,10.0,NE,3.5,-,N/A,,Mostly Cloudy,50,2013-01-30 15:56:00
8:56 AM,42.1,36.0,79,30.20,10.0,NNE,3.5,-,N/A,,Mostly Cloudy,20,2013-01-30 16:56:00
9:56 AM,45.0,37.9,76,30.20,10.0,NNE,3.5,-,N/A,,Mostly Cloudy,30,2013-01-30 17:56:00
10:56 AM,46.9,39.0,74,30.22,10.0,NE,8.1,-,N/A,,Overcast,50,2013-01-30 18:56:00
11:56 AM,44.1,39.9,85,30.21,10.0,Calm,Calm,-,N/A,,Mostly Cloudy,0,2013-01-30 19:56:00
12:56 PM,51.1,42.1,71,30.20,10.0,South,4.6,-,N/A,,Partly Cloudy,170,2013-01-30 20:56:00
1:56 PM,51.1,39.9,66,30.20,10.0,Calm,Calm,-,N/A,,Mostly Cloudy,0,2013-01-30 21:56:00
2:56 PM,54.0,37.0,53,30.21,10.0,WNW,10.4,-,N/A,,Partly Cloudy,290,2013-01-30 22:56:00
3:56 PM,53.1,36.0,52,30.22,10.0,WNW,10.4,-,N/A,,Scattered Clouds,290,2013-01-30 23:56:00
4:56 PM,51.1,35.1,54,30.24,10.0,West,6.9,-,N/A,,Overcast,280,2013-01-31 00:56:00
5:56 PM,48.0,36.0,63,30.25,10.0,SSE,4.6,-,N/A,,Overcast,160,2013-01-31 01:56:00
6:56 PM,46.9,35.1,63,30.25,10.0,South,5.8,-,N/A,,Scattered Clouds,170,2013-01-31 02:56:00
7:56 PM,46.0,35.1,66,30.26,10.0,South,6.9,-,N/A,,Mostly Cloudy,180,2013-01-31 03:56:00
8:56 PM,45.0,35.1,68,30.26,10.0,Calm,Calm,-,N/A,,Overcast,0,2013-01-31 04:56:00
9:56 PM,46.0,35.1,66,30.26,10.0,Calm,Calm,-,N/A,,Overcast,0,2013-01-31 05:56:00
10:56 PM,43.0,35.1,74,30.27,10.0,Calm,Calm,-,N/A,,Overcast,0,2013-01-31 06:56:00
11:56 PM,43.0,36.0,76,30.27,10.0,SW,5.8,-,N/A,,Overcast,220,2013-01-31 07:56:00